Flag for U.S.A. Weather past 2 weeks in Olympia, Washington, U.S.A.

Now
67 °F

Broken clouds.


Feels Like: 67 °F
Forecast: 52 / 73 °F
Wind: 14 mph from West

Location: Olympia Airport

Current Time: Jul 24, 2014 at 7:02:19 PM

Latest Report: Jul 24, 2014 at 5:54 PM


Visibility: 10 mi

Pressure: 30.21 "Hg

Humidity: 51%

Dew point: 48 °F

Location of OlympiaLocation

Historic Weather in Olympia — Graph

°F

Olympia temperature yesterday

Maximum temperature yesterday: 65 °F (at 5:54 PM)
Minimum temperature yesterday: 56 °F (at 9:54 PM)
Average temperature yesterday: 60 °F

Past Weeks' High & Low Weather Summary

 TemperatureHumidityPressure
High92 °F (Jul 12, 5:54 PM)100% (Jul 15, 5:54 AM)30.24 "Hg (Jul 15, 5:54 AM)
Low46 °F (Jul 21, 4:58 AM)21% (Jul 11, 4:54 PM)29.87 "Hg (Jul 10, 6:54 PM)
Average66 °F70%30.03 "Hg
* Reported Jul 9 5:54 PM — Jul 24 5:54 PM, Olympia, Weather by CustomWeather, © 2014

Note: Actual official high and low records may vary slightly from our data, if they occured in-between our weather recording intervals... More about our weather records

Advertising

Olympia weather history for previous 24 hours

 ConditionsComfort  
Time TempWeatherWind HumidityBarometerVisibility
5:54 PM
Jul 24
67 °FBroken clouds.14 mph51%30.21 "Hg10 mi
4:54 PM67 °FScattered clouds.12 mph53%30.21 "Hg10 mi
3:54 PM66 °FPartly sunny.12 mph61%30.24 "Hg10 mi
2:54 PM65 °FMore clouds than sun.15 mph61%30.23 "Hg10 mi
1:54 PM65 °FBroken clouds.13 mph66%30.23 "Hg10 mi
12:54 PM65 °FBroken clouds.17 mph66%30.22 "Hg10 mi
11:54 AM65 °FBroken clouds.13 mph68%30.20 "Hg10 mi
10:54 AM62 °FBroken clouds.10 mph78%30.20 "Hg10 mi
9:54 AM61 °FBroken clouds.15 mph81%30.17 "Hg10 mi
8:54 AM58 °FFog.9 mph90%30.16 "Hg4 mi
7:54 AM58 °FMostly cloudy.13 mph84%30.14 "Hg10 mi
6:54 AM56 °FPartly sunny.13 mph87%30.11 "Hg10 mi
5:54 AM55 °FPassing clouds.10 mph87%30.10 "Hg10 mi
4:54 AM56 °FMostly cloudy.7 mph87%30.09 "Hg10 mi
3:54 AM56 °FOvercast.13 mph87%30.07 "Hg10 mi
2:54 AM55 °FPassing clouds.10 mph87%30.07 "Hg10 mi
1:54 AM55 °FPassing clouds.15 mph90%30.06 "Hg10 mi
12:54 AM56 °FLight rain. Mostly cloudy.12 mph90%30.07 "Hg10 mi
11:54 PM
Jul 23
56 °FLight rain. Overcast.10 mph90%30.07 "Hg10 mi
10:54 PM56 °FLight rain. Overcast.9 mph90%30.07 "Hg9 mi
9:54 PM56 °FLight rain. More clouds than sun.5 mph90%30.09 "Hg7 mi
8:54 PM59 °FPartly sunny.8 mph75%30.07 "Hg10 mi
7:54 PM61 °FPassing clouds.7 mph67%30.06 "Hg10 mi
Weather by CustomWeather, © 2014

See weather overviewHow to use our weather pages